User: anonymous   Login
Location: Hookston
(37.9413°N, 122.0527°W)
Time: 06:41:11
(UTC+00:00)
Language:

Cosmos 1727 Rocket - Orbit

View from above orbital plane
View from above orbital plane
View from above satellite
View from above satellite

Ground track
Ground track

The orbit data is extracted from the following two-line orbital elements,

1 16511U 86008B   24201.96828230  .00000112  00000-0  10041-3 0  9996
2 16511  82.9436  99.2412 0022810 247.0369 123.6929 13.75894206932123
Epoch (UTC): 19 July 2024 23:14:19
Eccentricity: 0.0022810
inclination: 82.9436°
perigee height: 962 km
apogee height: 995 km
right ascension of ascending node: 99.2412°
argument of perigee: 247.0369°
revolutions per day: 13.75894206
mean anomaly at epoch: 123.6929°
orbit number at epoch: 93212

The dashed part of the orbit path shows where the satellite is in the earth's shadow,  

DLR